NOAA 17 DEB, 48754

Orbit data source: Space-Track

NOAA 17 DEB, 48754 is space debris in SSO originally from a launch on Mon, 24 Jun 2002 UTC launched from the Air Force Western Test Range (AFWTR). Debris objects in space refer to the collection of defunct objects orbiting the Earth. Examples of debris include non-operational satellites, rocket bodies, and fragments generated from explosions, collisions, or faulty payload assembly.

Loading next visibility...
Identifier
48754, 2002-032CP
Orbit
SSO
Country
Flag of USUS
Related business
Manufacturer
Unknown
Mission
Spacecraft
Bus & Motor
Unknown
Mass
Unknown
Launch date (UTC)
2002-06-24 (24 years ago)
Launch vehicle
Unknown
Launch site
Air Force Western Test Range (AFWTR)
Object type
Payload
Rocket body
Debris
Shape & HBR
Unknown shape, 0.1 m
Radar Cross Section
Medium (>0.1 m² and <1 m²)

Expand to show TLE details & history
Last TLE update: 4 days ago

TLE from 4 days ago
0 NOAA 17 DEB
1 48754U 02032CP  26169.42306492  .00011298  00000-0  17858-2 0  9991
2 48754  98.9350 230.9358 0013969 159.2962 200.8812 14.72441803274767
Epoch: 2026-06-18T10:09Z
TLE epoch observation values (Epoch: 2026-06-18T10:09:12.809Z)
Latitude
0.00008°
Longitude
171.96581°
Altitude
665.443 km
Speed
7.52 km/s
True Right ascension
15h 23m 44s
True Declination
0° 00' 00"
Sunlit
Object was in full shadow at epoch
Visualization orbit readout
Latitude
Unknown
Longitude
Unknown
Altitude
Unknown
Speed
Unknown
Apparent Right ascension
Unknown
Apparent Declination
Unknown
Sunlit
N/A
Visualization observer readout
Local Sidereal Time
23:18:56
Azimuth
Unknown
Elevation
Unknown
Doppler factor
Unknown
Orbital elements
Apogee altitude
660.202 km
Perigee altitude
640.566 km
Semi-major axis
7,028.521 km
Eccentricity
0.0014
Inclination
98.935°
RAAN
230.9358°
Arg. of periapsis
159.2962°
True anomaly
200.82424°
Mean anomaly
200.8812°
Eccentric anomaly
200.85271°
Mean motion
3.68339 °/min
Orbital period
97.74 mins
BSTAR
0.0017858
Loading maneuver chart data...
Computing Atmospheric mass density...

Documentation

Showing up to 5 results
|